Time,TemperatureF,DewpointF,PressureIn,WindDirection,WindDirectionDegrees,WindSpeedMPH,WindSpeedGustMPH,Humidity,HourlyPrecipIn,Conditions,Clouds,dailyrainin,SoftwareType,DateUTC
2013-02-24 00:04:00,31.6,31.0,29.96,ENE,76,0.0,0.0,96,0.00,,,0.04,weatherlink.com 1.10,2013-02-24 05:04:00,
2013-02-24 00:19:00,31.6,31.0,29.96,ENE,76,0.0,0.0,96,0.00,,,0.00,weatherlink.com 1.10,2013-02-24 05:19:00,
2013-02-24 00:34:00,31.5,31.0,29.95,ENE,76,0.0,0.0,96,0.00,,,0.00,weatherlink.com 1.10,2013-02-24 05:34:00,
2013-02-24 00:49:00,31.5,31.0,29.95,ENE,76,0.0,0.0,96,0.00,,,0.00,weatherlink.com 1.10,2013-02-24 05:49:00,
2013-02-24 01:04:00,31.4,30.0,29.94,ENE,76,0.0,0.0,96,0.00,,,0.00,weatherlink.com 1.10,2013-02-24 06:04:00,
2013-02-24 01:19:00,31.2,30.0,29.94,ENE,76,0.0,0.0,96,0.00,,,0.00,weatherlink.com 1.10,2013-02-24 06:19:00,
2013-02-24 01:34:00,31.2,30.0,29.94,ENE,76,0.0,0.0,96,0.00,,,0.00,weatherlink.com 1.10,2013-02-24 06:34:00,
2013-02-24 01:49:00,31.1,30.0,29.92,ENE,76,0.0,0.0,96,0.00,,,0.00,weatherlink.com 1.10,2013-02-24 06:49:00,
2013-02-24 02:04:00,31.2,30.0,29.92,ENE,76,0.0,0.0,96,0.00,,,0.00,weatherlink.com 1.10,2013-02-24 07:04:00,
2013-02-24 02:19:00,31.2,30.0,29.91,ENE,76,0.0,0.0,96,0.00,,,0.00,weatherlink.com 1.10,2013-02-24 07:19:00,
2013-02-24 02:34:00,31.1,30.0,29.90,ENE,76,0.0,0.0,96,0.00,,,0.00,weatherlink.com 1.10,2013-02-24 07:34:00,
2013-02-24 02:49:00,31.0,30.0,29.89,ENE,76,0.0,0.0,96,0.00,,,0.00,weatherlink.com 1.10,2013-02-24 07:49:00,
2013-02-24 03:04:00,31.0,30.0,29.88,ENE,76,0.0,0.0,96,0.00,,,0.00,weatherlink.com 1.10,2013-02-24 08:04:00,
2013-02-24 03:19:00,30.9,30.0,29.88,ENE,76,0.0,0.0,96,0.00,,,0.00,weatherlink.com 1.10,2013-02-24 08:19:00,
2013-02-24 03:34:00,30.8,30.0,29.87,ENE,76,0.0,0.0,96,0.00,,,0.00,weatherlink.com 1.10,2013-02-24 08:34:00,
2013-02-24 03:49:00,30.8,30.0,29.87,ENE,76,0.0,0.0,96,0.00,,,0.00,weatherlink.com 1.10,2013-02-24 08:49:00,
2013-02-24 04:04:00,30.8,30.0,29.87,ENE,76,0.0,0.0,96,0.00,,,0.00,weatherlink.com 1.10,2013-02-24 09:04:00,
2013-02-24 04:19:00,30.7,30.0,29.87,ENE,76,0.0,0.0,96,0.00,,,0.00,weatherlink.com 1.10,2013-02-24 09:19:00,
2013-02-24 04:34:00,30.7,30.0,29.86,ENE,76,0.0,0.0,96,0.00,,,0.00,weatherlink.com 1.10,2013-02-24 09:34:00,
2013-02-24 04:49:00,30.8,30.0,29.86,ENE,76,0.0,0.0,96,0.00,,,0.00,weatherlink.com 1.10,2013-02-24 09:49:00,
2013-02-24 05:04:00,30.7,30.0,29.86,ENE,76,0.0,0.0,96,0.00,,,0.00,weatherlink.com 1.10,2013-02-24 10:04:00,
2013-02-24 05:19:00,30.7,30.0,29.87,NNE,32,0.0,0.0,96,0.00,,,0.00,weatherlink.com 1.10,2013-02-24 10:19:00,
2013-02-24 05:34:00,30.7,30.0,29.87,NNE,32,0.0,0.0,96,0.00,,,0.00,weatherlink.com 1.10,2013-02-24 10:34:00,
2013-02-24 05:49:00,30.7,30.0,29.87,NNE,32,0.0,0.0,96,0.00,,,0.00,weatherlink.com 1.10,2013-02-24 10:49:00,
2013-02-24 06:04:00,30.6,30.0,29.87,NNE,32,0.0,0.0,96,0.00,,,0.00,weatherlink.com 1.10,2013-02-24 11:04:00,
2013-02-24 06:21:00,30.6,30.0,29.86,NNE,32,0.0,0.0,96,0.00,,,0.00,weatherlink.com 1.10,2013-02-24 11:21:00,
2013-02-24 06:34:00,30.5,30.0,29.86,NNE,32,0.0,0.0,96,0.00,,,0.00,weatherlink.com 1.10,2013-02-24 11:34:00,
2013-02-24 06:49:00,30.5,30.0,29.86,NNE,30,0.0,0.0,96,0.00,,,0.00,weatherlink.com 1.10,2013-02-24 11:49:00,
2013-02-24 07:04:00,30.4,29.0,29.86,NNE,30,0.0,0.0,96,0.00,,,0.00,weatherlink.com 1.10,2013-02-24 12:04:00,
2013-02-24 07:19:00,30.5,30.0,29.85,NNE,30,0.0,0.0,96,0.00,,,0.00,weatherlink.com 1.10,2013-02-24 12:19:00,
2013-02-24 07:34:00,30.5,30.0,29.85,NNE,30,0.0,0.0,96,0.00,,,0.00,weatherlink.com 1.10,2013-02-24 12:34:00,
2013-02-24 07:49:00,30.6,30.0,29.85,NNE,30,0.0,0.0,96,0.00,,,0.00,weatherlink.com 1.10,2013-02-24 12:49:00,
2013-02-24 08:04:00,30.8,30.0,29.85,NNE,30,0.0,0.0,95,0.00,,,0.00,weatherlink.com 1.10,2013-02-24 13:04:00,
2013-02-24 08:19:00,30.9,30.0,29.85,NNE,30,0.0,0.0,96,0.00,,,0.00,weatherlink.com 1.10,2013-02-24 13:19:00,
2013-02-24 08:34:00,31.2,30.0,29.84,NNE,30,0.0,0.0,95,0.00,,,0.00,weatherlink.com 1.10,2013-02-24 13:34:00,
2013-02-24 08:49:00,31.2,30.0,29.84,NNE,28,0.0,0.0,95,0.00,,,0.00,weatherlink.com 1.10,2013-02-24 13:49:00,
2013-02-24 09:04:00,31.3,30.0,29.83,NNE,28,0.0,0.0,95,0.00,,,0.00,weatherlink.com 1.10,2013-02-24 14:04:00,
2013-02-24 09:19:00,31.1,30.0,29.83,NNE,28,0.0,0.0,95,0.00,,,0.00,weatherlink.com 1.10,2013-02-24 14:19:00,
2013-02-24 09:34:00,31.1,30.0,29.82,NNE,28,0.0,0.0,95,0.00,,,0.00,weatherlink.com 1.10,2013-02-24 14:34:00,
2013-02-24 09:49:00,31.4,30.0,29.82,NNE,28,0.0,0.0,95,0.00,,,0.00,weatherlink.com 1.10,2013-02-24 14:49:00,
2013-02-24 10:05:00,31.2,30.0,29.82,NNE,28,0.0,0.0,95,0.00,,,0.00,weatherlink.com 1.10,2013-02-24 15:05:00,
2013-02-24 10:20:00,31.2,30.0,29.81,NNE,28,0.0,0.0,95,0.00,,,0.00,weatherlink.com 1.10,2013-02-24 15:20:00,
2013-02-24 10:35:00,31.4,30.0,29.81,NNE,28,0.0,0.0,95,0.00,,,0.00,weatherlink.com 1.10,2013-02-24 15:35:00,
2013-02-24 10:50:00,31.6,30.0,29.81,NNE,28,0.0,0.0,95,0.00,,,0.00,weatherlink.com 1.10,2013-02-24 15:50:00,
2013-02-24 11:05:00,31.7,30.0,29.80,NNE,28,0.0,0.0,94,0.00,,,0.00,weatherlink.com 1.10,2013-02-24 16:05:00,
2013-02-24 11:20:00,31.9,30.0,29.80,NNE,28,0.0,0.0,94,0.00,,,0.00,weatherlink.com 1.10,2013-02-24 16:20:00,
2013-02-24 11:35:00,32.0,31.0,29.80,NNE,28,0.0,0.0,94,0.00,,,0.00,weatherlink.com 1.10,2013-02-24 16:35:00,
2013-02-24 11:50:00,31.9,30.0,29.80,NNE,28,0.0,0.0,94,0.00,,,0.00,weatherlink.com 1.10,2013-02-24 16:50:00,
2013-02-24 12:05:00,32.4,31.0,29.79,NNE,27,0.0,0.0,94,0.00,,,0.00,weatherlink.com 1.10,2013-02-24 17:05:00,
2013-02-24 12:20:00,32.7,31.0,29.79,NNE,27,0.0,0.0,93,0.00,,,0.00,weatherlink.com 1.10,2013-02-24 17:20:00,
2013-02-24 12:35:00,32.8,31.0,29.78,NNE,27,0.0,0.0,92,0.00,,,0.00,weatherlink.com 1.10,2013-02-24 17:35:00,
2013-02-24 12:50:00,33.2,31.0,29.77,NNE,27,0.0,0.0,92,0.00,,,0.00,weatherlink.com 1.10,2013-02-24 17:50:00,
2013-02-24 13:05:00,33.8,32.0,29.77,NNE,27,0.0,0.0,91,0.00,,,0.00,weatherlink.com 1.10,2013-02-24 18:05:00,
2013-02-24 13:20:00,33.5,31.0,29.77,North,10,0.0,0.0,91,0.00,,,0.00,weatherlink.com 1.10,2013-02-24 18:20:00,
2013-02-24 13:38:00,33.5,31.0,29.77,North,10,0.0,0.0,91,0.01,,,0.01,weatherlink.com 1.10,2013-02-24 18:38:00,
2013-02-24 13:50:00,33.2,31.0,29.77,North,10,0.0,0.0,92,0.01,,,0.01,weatherlink.com 1.10,2013-02-24 18:50:00,
2013-02-24 14:05:00,33.5,32.0,29.76,North,10,0.0,0.0,92,0.01,,,0.01,weatherlink.com 1.10,2013-02-24 19:05:00,
2013-02-24 14:20:00,34.1,32.0,29.76,North,10,0.0,1.0,92,0.02,,,0.02,weatherlink.com 1.10,2013-02-24 19:20:00,
2013-02-24 14:35:00,33.7,32.0,29.76,North,10,0.0,1.0,92,0.01,,,0.02,weatherlink.com 1.10,2013-02-24 19:35:00,
2013-02-24 14:50:00,34.1,32.0,29.76,North,10,0.0,2.0,91,0.02,,,0.03,weatherlink.com 1.10,2013-02-24 19:50:00,
2013-02-24 15:05:00,35.0,32.0,29.76,North,10,0.0,3.0,88,0.03,,,0.04,weatherlink.com 1.10,2013-02-24 20:05:00,
2013-02-24 15:20:00,34.4,32.0,29.76,North,5,0.0,4.0,89,0.03,,,0.05,weatherlink.com 1.10,2013-02-24 20:20:00,
2013-02-24 15:35:00,33.9,32.0,29.76,North,5,0.0,3.0,91,0.04,,,0.06,weatherlink.com 1.10,2013-02-24 20:35:00,
2013-02-24 15:50:00,34.3,32.0,29.76,North,5,0.0,1.0,91,0.04,,,0.07,weatherlink.com 1.10,2013-02-24 20:50:00,
2013-02-24 16:05:00,34.1,32.0,29.76,North,5,0.0,3.0,91,0.04,,,0.08,weatherlink.com 1.10,2013-02-24 21:05:00,
2013-02-24 16:20:00,33.9,32.0,29.76,North,5,1.0,2.0,91,0.04,,,0.09,weatherlink.com 1.10,2013-02-24 21:20:00,
2013-02-24 16:35:00,33.9,32.0,29.76,North,5,0.0,1.0,91,0.04,,,0.10,weatherlink.com 1.10,2013-02-24 21:35:00,
2013-02-24 16:50:00,33.7,32.0,29.77,North,5,0.0,0.0,92,0.04,,,0.11,weatherlink.com 1.10,2013-02-24 21:50:00,
2013-02-24 17:05:00,33.5,32.0,29.77,North,5,0.0,2.0,93,0.04,,,0.12,weatherlink.com 1.10,2013-02-24 22:05:00,
2013-02-24 17:20:00,33.0,31.0,29.78,North,5,2.0,2.0,92,0.04,,,0.13,weatherlink.com 1.10,2013-02-24 22:20:00,
2013-02-24 17:35:00,32.6,31.0,29.78,North,5,0.0,1.0,93,0.03,,,0.13,weatherlink.com 1.10,2013-02-24 22:35:00,
2013-02-24 17:50:00,32.4,31.0,29.79,North,5,0.0,0.0,93,0.03,,,0.14,weatherlink.com 1.10,2013-02-24 22:50:00,
2013-02-24 18:05:00,32.3,31.0,29.79,North,5,0.0,0.0,94,0.02,,,0.14,weatherlink.com 1.10,2013-02-24 23:05:00,
2013-02-24 18:20:00,32.2,31.0,29.80,North,5,0.0,0.0,94,0.01,,,0.14,weatherlink.com 1.10,2013-02-24 23:20:00,
2013-02-24 18:35:00,32.0,31.0,29.81,North,5,0.0,2.0,94,0.01,,,0.14,weatherlink.com 1.10,2013-02-24 23:35:00,
2013-02-24 18:50:00,31.7,30.0,29.82,NE,34,0.0,3.0,94,0.00,,,0.14,weatherlink.com 1.10,2013-02-24 23:50:00,
2013-02-24 19:05:00,31.5,30.0,29.82,NE,34,0.0,1.0,95,0.00,,,0.14,weatherlink.com 1.10,2013-02-25 00:05:00,
2013-02-24 19:20:00,31.1,30.0,29.83,NE,34,0.0,0.0,94,0.01,,,0.15,weatherlink.com 1.10,2013-02-25 00:20:00,
2013-02-24 19:35:00,31.1,30.0,29.83,NE,34,0.0,0.0,95,0.01,,,0.15,weatherlink.com 1.10,2013-02-25 00:35:00,
2013-02-24 19:51:00,30.9,30.0,29.84,NE,34,0.0,0.0,95,0.01,,,0.15,weatherlink.com 1.10,2013-02-25 00:51:00,
2013-02-24 20:20:00,30.7,30.0,29.85,NE,34,0.0,1.0,95,0.00,,,0.15,weatherlink.com 1.10,2013-02-25 01:20:00,
2013-02-24 20:35:00,30.5,29.0,29.86,NE,34,0.0,0.0,95,0.00,,,0.15,weatherlink.com 1.10,2013-02-25 01:35:00,
2013-02-24 20:50:00,30.2,29.0,29.86,NE,34,0.0,0.0,95,0.00,,,0.15,weatherlink.com 1.10,2013-02-25 01:50:00,
2013-02-24 21:05:00,30.1,29.0,29.86,NE,34,0.0,0.0,95,0.00,,,0.15,weatherlink.com 1.10,2013-02-25 02:05:00,
2013-02-24 21:20:00,30.1,29.0,29.87,NE,34,0.0,0.0,95,0.00,,,0.15,weatherlink.com 1.10,2013-02-25 02:20:00,
2013-02-24 21:35:00,30.1,29.0,29.87,NE,34,0.0,0.0,95,0.00,,,0.15,weatherlink.com 1.10,2013-02-25 02:35:00,
2013-02-24 21:50:00,30.1,29.0,29.87,NE,34,0.0,0.0,95,0.00,,,0.15,weatherlink.com 1.10,2013-02-25 02:50:00,
2013-02-24 22:05:00,30.0,29.0,29.87,NE,34,0.0,0.0,95,0.00,,,0.15,weatherlink.com 1.10,2013-02-25 03:05:00,
2013-02-24 22:20:00,30.0,29.0,29.87,NE,34,0.0,0.0,95,0.00,,,0.15,weatherlink.com 1.10,2013-02-25 03:20:00,
2013-02-24 22:35:00,29.9,29.0,29.87,NE,34,0.0,0.0,95,0.00,,,0.15,weatherlink.com 1.10,2013-02-25 03:35:00,
2013-02-24 22:50:00,29.9,29.0,29.88,NE,34,0.0,0.0,95,0.00,,,0.15,weatherlink.com 1.10,2013-02-25 03:50:00,
2013-02-24 23:05:00,29.9,29.0,29.88,NE,34,0.0,0.0,96,0.00,,,0.15,weatherlink.com 1.10,2013-02-25 04:05:00,
2013-02-24 23:20:00,29.8,29.0,29.88,NE,34,0.0,0.0,96,0.00,,,0.15,weatherlink.com 1.10,2013-02-25 04:20:00,
2013-02-24 23:35:00,29.7,29.0,29.89,NE,34,0.0,0.0,96,0.00,,,0.15,weatherlink.com 1.10,2013-02-25 04:35:00,
2013-02-24 23:50:00,29.5,28.0,29.89,NE,34,0.0,0.0,95,0.00,,,0.15,weatherlink.com 1.10,2013-02-25 04:50:00,